www.pogodaiklimat.ru

Погода и климат >> Архив погоды >> Австралия >> Bourke Airport Aws


ПОГОДА в Bourke Airport Aws

  • Прогноз погоды в Bourke Airport Aws
  • Монитор погоды в Bourke Airport Aws
  • Климат города

АРХИВ ПОГОДЫ в Bourke Airport Aws

Время (UTC), дата Ветер
(напр.,м/с)
 
Видим.   Явления Облачность Т
(С)
Тd
(С)
f
(%)
Тe
(С)
Тes
(С)
Комфортность P
(гПа)
Po
(гПа)
Тmin
(С)
Tmax
(С)
R
(мм)
R24
(мм)
S
(см)
07 13.01 З 7 н/о н/о +34.0 +12.9 28 +34 +34 очень
жарко
1003.3 991.3
08 13.01 ЮЗ 8 н/о н/о +33.0 +12.6 29 +33 +33 жарко 1003.5 991.5
09 13.01 ЮЗ 7 н/о н/о +31.5 +11.3 29 +32 +32 жарко 1004.3 992.2
10 13.01 ЮЗ 6 н/о н/о +30.2 +9.7 28 +30 +30 жарко 1004.9 992.8
11 13.01 ЮЗ 7 н/о н/о +29.1 +9.3 29 +29 +29 жарко 1005.7 993.6
12 13.01 ЮЗ 6 н/о н/о +28.0 +7.8 28 +28 +28 жарко 1006.3 994.2
13 13.01 ЮЗ 6 н/о н/о +26.9 +5.8 26 +26 +26 жарко 1007.0 994.9 +36.4
14 13.01 ЮЗ 4 н/о н/о +25.7 +5.3 27 +25 +25 комфорт 1006.9 994.8
15 13.01 ЮЗ 3 н/о н/о +23.7 +5.6 31 +24 +24 комфорт 1006.4 994.3
16 13.01 З 2 н/о н/о +22.4 +5.4 33 +23 +23 комфорт 1005.9 993.8
17 13.01 ЮЗ 6 н/о н/о +23.4 +6.2 33 +24 +24 комфорт 1006.3 994.2
18 13.01 Ю 7 н/о н/о +21.7 +9.6 46 +23 +23 комфорт 1007.2 995.1
19 13.01 Ю 8 н/о н/о +20.2 +9.2 49 +21 +21 комфорт 1008.5 996.4
20 13.01 Ю 7 н/о н/о +19.8 +7.2 44 +20 +20 1009.5 997.4
21 13.01 Ю 7 н/о н/о +20.8 +6.7 40 +22 +22 комфорт 1010.4 998.3
22 13.01 Ю 7 н/о н/о +21.9 +7.7 40 +23 +23 комфорт 1011.2 999.1
23 13.01 Ю 6 н/о н/о +22.1 +6.3 36 +23 +23 комфорт 1011.4 999.3
00 14.01 Ю 7 н/о н/о +24.2 +6.0 31 +24 +24 комфорт 1011.6 999.5
01 14.01 ЮЗ 7 н/о н/о +24.8 +0.3 20 +23 +23 комфорт 1011.5 999.4 +19.7
02 14.01 Ю 7 н/о н/о +26.1 -3.5 14 +24 +24 комфорт 1011.0 998.9
03 14.01 Ю 9 н/о н/о +27.3 -2.5 14 +25 +25 комфорт 1010.4 998.3
04 14.01 Ю 7 н/о н/о +28.7 -3.5 12 +26 +26 жарко 1009.7 997.6
05 14.01 Ю 6 н/о н/о +29.4 -1.9 13 +26 +26 жарко 1009.3 997.2
06 14.01 Ю 6 н/о н/о +29.4 -1.9 13 +26 +26 жарко 1008.8 996.7
07 14.01 Ю 8 н/о н/о +29.7 -2.7 12 +27 +27 жарко 1009.0 996.9
08 14.01 Ю 7 н/о н/о +29.3 -0.9 14 +26 +26 жарко 1009.5 997.4
09 14.01 Ю 7 н/о н/о +27.6 -2.3 14 +25 +25 комфорт 1010.1 998.0
10 14.01 Ю 5 н/о н/о +25.7 -2.8 15 +24 +24 комфорт 1011.0 998.9
11 14.01 Ю 4 н/о н/о +24.2 -4.0 15 +22 +22 комфорт 1011.8 999.7
12 14.01 ЮВ 4 н/о н/о +22.9 -2.6 18 +21 +21 комфорт 1012.6 1000.4
13 14.01 Ю 3 н/о н/о +21.4 -2.5 20 +21 +21 комфорт 1012.8 1000.6 +31.0
14 14.01 Ю 5 н/о н/о +21.7 -2.9 19 +21 +21 комфорт 1012.9 1000.7
15 14.01 Ю 4 н/о н/о +21.2 -2.6 20 +20 +20 1012.7 1000.5
16 14.01 Ю 5 н/о н/о +21.0 -2.1 21 +21 +21 комфорт 1012.0 999.9
17 14.01 Ю 3 н/о н/о +18.7 -2.3 24 +19 +19 1011.8 999.7
18 14.01 Ю 4 н/о н/о +18.6 -1.8 25 +19 +19 1012.3 1000.1
19 14.01 Ю 4 н/о н/о +17.8 -1.4 27 +18 +18 1013.0 1000.8
20 14.01 Ю 5 н/о н/о +18.4 -0.4 28 +18 +18 1013.9 1001.7
21 14.01 Ю 5 н/о н/о +20.4 +0.3 26 +20 +20 1014.8 1002.6
22 14.01 ЮВ 6 н/о н/о +24.1 +1.7 23 +23 +23 комфорт 1015.2 1003.0
23 14.01 В 5 н/о н/о +25.5 +2.2 22 +24 +24 комфорт 1015.0 1002.8
00 15.01 ЮВ 5 н/о н/о +27.3 +2.4 20 +26 +26 жарко 1014.9 1002.7
01 15.01 ЮВ 5 н/о н/о +28.7 +1.3 17 +26 +26 жарко 1014.6 1002.4 +17.2
02 15.01 Ю 3 н/о н/о +30.3 +0.8 15 +28 +28 жарко 1013.8 1001.6
03 15.01 ЮВ 6 н/о н/о +32.3 +1.4 14 +29 +29 жарко 1012.7 1000.5
04 15.01 ЮВ 4 н/о н/о +33.5 +1.3 13 +30 +30 жарко 1011.7 999.6
05 15.01 ЮВ 6 н/о н/о +34.2 +1.9 13 +31 +31 жарко 1010.7 998.6
06 15.01 ЮВ 7 н/о н/о +34.5 +2.1 13 +31 +31 жарко 1009.8 997.7
07 15.01 ЮВ 6 н/о н/о +35.1 +3.6 14 +32 +32 жарко 1009.4 997.3
08 15.01 Ю 6 н/о н/о +34.5 +2.1 13 +31 +31 жарко 1009.8 997.7
09 15.01 Ю 5 н/о н/о +33.0 +2.9 15 +30 +30 жарко 1010.1 998.0
10 15.01 ЮВ 4 н/о н/о +31.0 +3.9 18 +29 +29 жарко 1010.6 998.5
11 15.01 ЮВ 4 н/о н/о +29.5 +3.5 19 +27 +27 жарко 1011.2 999.1
12 15.01 ЮВ 4 н/о н/о +28.8 +4.3 21 +27 +27 жарко 1011.6 999.5
13 15.01 ЮВ 4 н/о н/о +27.5 +5.1 24 +26 +26 жарко 1012.0 999.9 +35.7
14 15.01 ЮВ 3 н/о н/о +26.5 +5.5 26 +26 +26 жарко 1012.0 999.9
15 15.01 ЮВ 4 н/о н/о +25.6 +5.2 27 +25 +25 комфорт 1011.8 999.7
16 15.01 ЮВ 3 н/о н/о +23.7 +5.1 30 +24 +24 комфорт 1011.6 999.5
17 15.01 ЮВ 3 н/о н/о +22.4 +5.4 33 +23 +23 комфорт 1011.5 999.4
18 15.01 ЮВ 3 н/о н/о +21.3 +5.2 35 +22 +22 комфорт 1012.0 999.9
19 15.01 ЮВ 3 н/о н/о +21.2 +5.9 37 +22 +22 комфорт 1012.7 1000.5
20 15.01 В 6 н/о н/о +23.2 +6.1 33 +24 +24 комфорт 1013.9 1001.7
21 15.01 В 7 н/о н/о +24.4 +4.7 28 +24 +24 комфорт 1015.1 1002.9
22 15.01 В 8 н/о н/о +25.9 +5.5 27 +25 +25 комфорт 1015.7 1003.5
23 15.01 В 6 н/о н/о +27.9 +6.6 26 +27 +27 жарко 1016.1 1003.9
00 16.01 В 6 н/о н/о +29.1 +7.1 25 +28 +28 жарко 1016.1 1003.9
01 16.01 В 6 н/о н/о +30.7 +7.2 23 +29 +29 жарко 1015.8 1003.6 +20.4
02 16.01 В 6 н/о н/о +32.2 +7.1 21 +31 +31 жарко 1015.1 1002.9
03 16.01 В 5 н/о н/о +33.0 +4.7 17 +31 +31 жарко 1014.0 1001.8
04 16.01 ЮВ 4 н/о н/о +34.2 +3.9 15 +31 +31 жарко 1013.1 1000.9
05 16.01 ЮВ 4 н/о н/о +34.2 +1.9 13 +31 +31 жарко 1012.4 1000.2
06 16.01 ЮВ 7 н/о н/о +35.4 +0.5 11 +32 +32 жарко 1011.5 999.4
07 16.01 ЮВ 6 н/о н/о +35.2 +0.3 11 +32 +32 жарко 1011.1 999.0
08 16.01 В 4 н/о н/о +34.8 0.0 11 +31 +31 жарко 1011.3 999.2
09 16.01 В 5 н/о н/о +33.1 -1.3 11 +30 +30 жарко 1011.7 999.6
10 16.01 В 3 н/о н/о +28.9 -2.3 13 +26 +26 жарко 1012.4 1000.2
11 16.01 В 4 н/о н/о +28.6 -2.5 13 +26 +26 жарко 1013.0 1000.8
12 16.01 В 3 н/о н/о +25.3 -3.2 15 +23 +23 комфорт 1013.3 1001.1
13 16.01 В 4 н/о н/о +26.2 -2.4 15 +24 +24 комфорт 1013.5 1001.3 +36.3
14 16.01 В 4 н/о н/о +23.8 -3.5 16 +22 +22 комфорт 1013.2 1001.0
15 16.01 В 3 н/о н/о +20.6 -3.8 19 +21 +21 комфорт 1012.9 1000.7
16 16.01 В 2 н/о н/о +18.6 -4.1 21 +19 +19 1012.4 1000.2
17 16.01 В 3 н/о н/о +18.6 -2.9 23 +19 +19 1012.0 999.9
18 16.01 В 6 н/о н/о +23.6 -1.3 19 +22 +22 комфорт 1012.7 1000.5
19 16.01 В 5 н/о н/о +21.5 +0.1 24 +21 +21 комфорт 1013.4 1001.2
20 16.01 В 6 н/о н/о +21.3 +1.0 26 +21 +21 комфорт 1014.5 1002.3
21 16.01 В 7 н/о н/о +23.3 +1.6 24 +23 +23 комфорт 1015.3 1003.1
22 16.01 В 6 н/о н/о +25.9 +3.2 23 +25 +25 комфорт 1016.0 1003.8
23 16.01 В 6 н/о н/о +28.4 +4.6 22 +27 +27 жарко 1016.0 1003.8
00 17.01 В 5 н/о н/о +30.3 +4.1 19 +28 +28 жарко 1015.9 1003.7
01 17.01 В 4 н/о н/о +32.0 +3.1 16 +29 +29 жарко 1015.5 1003.3 +17.8
02 17.01 СВ 3 н/о н/о +32.8 +0.8 13 +30 +30 жарко 1014.8 1002.6
03 17.01 В 4 н/о н/о +35.0 +0.2 11 +31 +31 жарко 1013.9 1001.7
04 17.01 В 3 н/о н/о +34.6 -0.1 11 +31 +31 жарко 1013.5 1001.3
05 17.01 ЮВ 3 н/о н/о +35.3 +0.4 11 +32 +32 жарко 1012.7 1000.5
06 17.01 СВ 3 н/о н/о +35.5 +0.6 11 +32 +32 жарко 1011.7 999.6
07 17.01 С 2 н/о н/о +36.5 0.0 10 +33 +33 жарко 1011.5 999.4
08 17.01 ЮВ 4 н/о н/о +36.2 -0.2 10 +32 +32 жарко 1011.7 999.6
09 17.01 СВ 4 н/о н/о +34.0 -0.6 11 +30 +30 жарко 1012.5 1000.3
10 17.01 В 4 н/о н/о +31.4 -1.4 12 +28 +28 жарко 1013.4 1001.2
11 17.01 В 3 н/о н/о +28.3 -1.7 14 +26 +26 жарко 1014.1 1001.9
12 17.01 В 3 н/о н/о +26.6 -2.1 15 +24 +24 комфорт 1014.3 1002.1
13 17.01 В 3 н/о н/о +25.2 -0.8 18 +23 +23 комфорт 1014.5 1002.3 +37.1
14 17.01 В 3 н/о н/о +23.8 -0.5 20 +23 +23 комфорт 1014.3 1002.1
15 17.01 В 3 н/о н/о +23.1 -0.4 21 +22 +22 комфорт 1014.1 1001.9
16 17.01 В 4 н/о н/о +22.8 0.0 22 +22 +22 комфорт 1013.9 1001.7
17 17.01 В 3 н/о н/о +21.7 +0.3 24 +21 +21 комфорт 1013.8 1001.6
18 17.01 В 3 н/о н/о +21.4 +0.6 25 +21 +21 комфорт 1013.9 1001.7
19 17.01 В 4 н/о н/о +20.8 +0.1 25 +21 +21 комфорт 1014.5 1002.3
20 17.01 В 4 н/о н/о +20.8 +0.6 26 +21 +21 комфорт 1015.1 1002.9
21 17.01 В 3 н/о н/о +25.1 +1.3 21 +24 +24 комфорт 1015.9 1003.7
22 17.01 В 4 н/о н/о +29.2 -0.1 15 +27 +27 жарко 1016.4 1004.2
23 17.01 СВ 6 н/о н/о +31.6 -0.1 13 +28 +28 жарко 1016.6 1004.4
00 18.01 СВ 5 н/о н/о +33.8 -0.7 11 +30 +30 жарко 1016.2 1004.0
01 18.01 В 4 н/о н/о +34.6 -1.4 10 +31 +31 жарко 1015.7 1003.5 +18.9
02 18.01 В 5 н/о н/о +36.1 -0.3 10 +32 +32 жарко 1015.0 1002.8
03 18.01 СВ 6 н/о н/о +36.5 -1.4 9 +33 +33 жарко 1014.1 1001.9
04 18.01 ЮЗ 2 н/о н/о +37.6 -0.6 9 +34 +34 очень
жарко
1013.2 1001.0
05 18.01 Ю 3 н/о н/о +37.9 -2.0 8 +34 +34 очень
жарко
1012.0 999.9
06 18.01 ЮВ 4 н/о н/о +38.5 -1.6 8 +35 +35 очень
жарко
1011.2 999.1
07 18.01 В 4 н/о н/о +38.3 -3.5 7 +34 +34 очень
жарко
1010.9 998.8
08 18.01 В 3 н/о н/о +38.0 -1.9 8 +34 +34 очень
жарко
1010.8 998.7
09 18.01 СВ 3 н/о н/о +36.2 -3.3 8 +32 +32 жарко 1011.1 999.0
10 18.01 СВ 3 н/о н/о +30.5 -4.5 10 +27 +27 жарко 1011.5 999.4
11 18.01 В 2 н/о н/о +27.9 -3.0 13 +25 +25 комфорт 1012.0 999.9
12 18.01 В 3 н/о н/о +27.2 -1.7 15 +25 +25 комфорт 1012.7 1000.5
13 18.01 В 2 н/о н/о +25.5 -1.3 17 +24 +24 комфорт 1012.9 1000.7 +39.3
14 18.01 В 3 н/о н/о +25.2 0.0 19 +24 +24 комфорт 1012.6 1000.4
15 18.01 В 3 н/о н/о +23.3 -0.2 21 +22 +22 комфорт 1012.3 1000.1
16 18.01 В 3 н/о н/о +22.3 +0.2 23 +22 +22 комфорт 1011.8 999.7
17 18.01 В 2 н/о н/о +21.5 -0.5 23 +21 +21 комфорт 1011.6 999.5
18 18.01 В 3 н/о н/о +21.4 -0.6 23 +21 +21 комфорт 1011.9 999.8
19 18.01 В 3 н/о н/о +20.6 +0.4 26 +21 +21 комфорт 1012.4 1000.2
20 18.01 ЮВ 3 н/о н/о +20.9 +2.2 29 +22 +22 комфорт 1013.0 1000.8
21 18.01 ЮВ 2 н/о н/о +24.0 +2.2 24 +23 +23 комфорт 1013.5 1001.3
22 18.01 В 2 н/о н/о +28.3 +3.2 20 +27 +27 жарко 1013.8 1001.6
23 18.01 В 4 н/о н/о +32.3 +4.2 17 +30 +30 жарко 1013.8 1001.6
00 19.01 В 3 н/о н/о +34.5 +4.1 15 +32 +32 жарко 1013.6 1001.4
01 19.01 В 3 н/о н/о +36.8 +2.8 12 +34 +34 очень
жарко
1013.0 1000.8 +20.0
02 19.01 В 4 н/о н/о +38.3 +1.3 10 +35 +35 очень
жарко
1012.3 1000.1
03 19.01 В 5 н/о н/о +39.8 +1.0 9 +36 +36 очень
жарко
1011.3 999.2
04 19.01 ЮВ 4 н/о н/о +40.6 +1.6 9 +37 +37 очень
жарко
1010.3 998.2
05 19.01 ЮВ 2 н/о н/о +40.5 -0.1 8 +37 +37 очень
жарко
1009.3 997.2
06 19.01 В 5 н/о н/о +40.7 0.0 8 +37 +37 очень
жарко
1008.6 996.5
07 19.01 В 3 н/о н/о +40.3 -0.3 8 +36 +36 очень
жарко
1008.1 996.0
08 19.01 СВ 4 н/о н/о +39.1 +0.5 9 +35 +35 очень
жарко
1008.1 996.0
09 19.01 СВ 3 н/о н/о +35.2 -1.0 10 +31 +31 жарко 1008.5 996.4
10 19.01 В 3 н/о н/о +32.4 -0.6 12 +29 +29 жарко 1008.8 996.7
11 19.01 В 4 н/о н/о +31.3 -0.4 13 +28 +28 жарко 1009.1 997.0
12 19.01 В 3 н/о н/о +29.3 -0.9 14 +26 +26 жарко 1009.5 997.4
13 19.01 В 3 н/о н/о +27.4 -1.5 15 +25 +25 комфорт 1009.4 997.3 +41.4
14 19.01 СВ 2 н/о н/о +25.0 -0.9 18 +23 +23 комфорт 1009.1 997.0
15 19.01 штиль 0 н/о н/о +23.7 +0.1 21 +23 +23 комфорт 1008.6 996.5
16 19.01 штиль 0 н/о н/о +21.7 -0.3 23 +21 +21 комфорт 1008.2 996.1
17 19.01 Ю 2 н/о н/о +20.5 +1.9 29 +21 +21 комфорт 1008.1 996.0
18 19.01 Ю 3 н/о н/о +22.1 +1.7 26 +22 +22 комфорт 1008.3 996.2
19 19.01 штиль 0 н/о н/о +19.5 -0.5 26 +19 +19 1008.8 996.7
20 19.01 Ю 2 н/о н/о +19.5 -0.5 26 +20 +20 1009.4 997.3
21 19.01 ЮВ 4 н/о н/о +25.5 -0.5 18 +24 +24 комфорт 1010.2 998.1
22 19.01 СВ 2 н/о н/о +28.6 -0.5 15 +26 +26 жарко 1010.7 998.6
23 19.01 В 2 н/о н/о +31.7 -0.1 13 +29 +29 жарко 1010.6 998.5
00 20.01 С 3 н/о н/о +34.8 0.0 11 +31 +31 жарко 1010.3 998.2
01 20.01 С 3 н/о н/о +37.5 -0.7 9 +34 +34 очень
жарко
1009.8 997.7 +19.2
02 20.01 С 3 н/о н/о +39.4 +0.7 9 +36 +36 очень
жарко
1009.2 997.1
03 20.01 СВ 3 н/о н/о +40.1 -0.4 8 +36 +36 очень
жарко
1008.6 996.5
04 20.01 Ю 4 н/о н/о +40.1 -0.4 8 +36 +36 очень
жарко
1007.8 995.7
05 20.01 Ю 4 н/о н/о +40.2 -0.3 8 +36 +36 очень
жарко
1007.1 995.0
06 20.01 Ю 3 н/о н/о +40.4 -0.2 8 +37 +37 очень
жарко
1006.5 994.4

 

Местоположение метеостанции Bourke Airport Aws (Новый Южный Уэльс, Австралия): широта -30.03 долгота 145.95 высота над уровнем моря 108 м.

В архиве по умолчанию представлена погода в Bourke Airport Aws за последнюю неделю. Архивные данные за месяц целиком и за предыдущие месяцы, начиная с января 2011 года, Вы можете получить, выбрав интересующий диапазон дат из раскрывающегося списка и нажав кнопку "Ввод!".

Внимание! Время в таблицах - всемирное. Для получения местного времени необходимо прибавить поправку, которая в Bourke Airport Aws равна 10 ч.

Смотрите также архив погоды в соседних городах и на ближайших метеорологических станциях:

Погода в Cobar Mo (Новый Южный Уэльс, Австралия) (162 км)
Погода в Cobar Airport Aws (Новый Южный Уэльс, Австралия) (167 км)
Погода в Walgett Airport Aws (Новый Южный Уэльс, Австралия) (209 км)
Погода в Coonamble Airport (Новый Южный Уэльс, Австралия) (256 км)
Погода в Trangie Research Stn (Новый Южный Уэльс, Австралия) (289 км)
Погода в White Cliffs Aws (Новый Южный Уэльс, Австралия) (291 км)
Погода в Wilcannia Aerodrome (Новый Южный Уэльс, Австралия) (296 км)
Погода в Thargomindah Airport (Квинсленд, Австралия) (309 км)
Погода в St George Airport (Квинсленд, Австралия) (339 км)
Погода в Dubbo Airport Aws (Новый Южный Уэльс, Австралия) (347 км)

Пояснения к столбцам:

Ветер - указаны скорость ветра в м/с - средняя за 10 мин, порывы в срок и между сроками (в фигурных скобках) и направление, откуда дует ветер: С - северный, СВ - северо-восточный, В - восточный, ЮВ - юго-восточный, Ю - южный, ЮЗ - юго-западный, З - западный, СЗ - северо-западный.
Видимость - горизонтальная дальность видимости в метрах или километрах. При видимости от 1 до 10 км при отсутствии осадков обычно наблюдается дымка, при ухудшении видимости до 1 км и менее - туман. В сухую погоду видимость может ухудшаться дымом, пылью или мглою.
Явления - указаны атмосферные явления, наблюдавшиеся в срок или в последний час перед сроком; фигурными скобками обозначены явления, наблюдавшиеся между сроками (за 1-3 часа до срока); квадратными скобками обозначены град или гололедные отложения с указанием их диаметра в мм.
Облачность - указаны через наклонную черту общая и нижняя облачность в баллах и высота нижней границы облаков в метрах; квадратными скобками обозначены формы облаков: Ci - перистые, Cs - перисто-слоистые, Cc - перисто-кучевые, Ac - высококучевые, As - высокослоистые, Sc - слоисто-кучевые, Ns - слоисто-дождевые, Cu - кучевые, Cb - кучево-дождевые. Подробнее классификацию облаков см. в Атласе облаков (PDF).
T - Температура воздуха - температура, измеренная на высоте 2 м над землей.
Td - Температура точки росы - температура, при понижении до которой содержащийся в воздухе водяной пар достигнет насыщения.
f - Относительная влажность воздуха - влажноcть воздуха, измеренная на высоте 2 м над землей.
Te - Эффективная температура - температура, которую ощущает одетый по сезону человек в тени. Характеристика душности погоды. При расчете учитывается влияние влажности воздуха и скорости ветра на теплоощущения человека.
Tes - Эффективная температура на солнце - температура, которую ощущает человек, с поправкой на солнечный нагрев. Характеристика знойности погоды. Зависит от высоты солнца над горизонтом, облачности и скорости ветра. Ночью, в пасмурную погоду, а также при ветре 12 м/с и более поправка равна нулю.
P - Атмосферное давление - приведенное к уровню моря атмосферное давление.
Po - Атмосферное давление - измеренное на уровне метеостанции атмосферное давление.
Tmin - Минимальная температура - минимум температуры воздуха на высоте 2 м над землей.
Tmax - Максимальная температура - максимум температуры воздуха на высоте 2 м над землей.
R - Количество осадков - Количество выпавших осадков за период времени, мм. При наведении курсора мыши на число - период времени, за который выпало указанное количество осадков.
R24 - Количество осадков - Количество выпавших осадков за 24 часа, мм.
S - Снежный покров - Высота снежного покрова, см. При наведении курсора мыши на число - состояние снежного покрова и степень покрытия местности в баллах.